BOE1Z DNMM-DFFD

Flight info

Callsign BOE1Z
Flight time 1h 11m
Altitude 32000
Route POLTO UL433 TYE UA601 PAMPA UR983 UMOVO
Aircraft B744/H-SDE3FGHIM1M2RWXY/LB1

Departure

Time 2026-04-30 07:06
Airport Murtala Muhammed International Airport (DNMM)

Arrival

Time 2026-04-30 08:18
Airport Ouagadougou Thomas Sankara International Airport (DFFD)
Time Latitude Longitude Altitude Speed Heading
2026-04-30 07:00 6.58103 3.32065 98 ft 0 kts 336°
2026-04-30 07:01 6.58125 3.32056 97 ft 6 kts 336°
2026-04-30 07:02 6.58165 3.32037 97 ft 7 kts 332°
2026-04-30 07:02 6.58210 3.31979 96 ft 15 kts 278°
2026-04-30 07:02 6.58170 3.31839 90 ft 24 kts 248°
2026-04-30 07:02 6.58100 3.31679 84 ft 25 kts 244°
2026-04-30 07:03 6.58089 3.31531 79 ft 21 kts 332°
2026-04-30 07:03 6.58233 3.31519 78 ft 19 kts 358°
2026-04-30 07:03 6.58362 3.31515 77 ft 17 kts
2026-04-30 07:03 6.58487 3.31517 75 ft 17 kts
2026-04-30 07:04 6.58604 3.31518 75 ft 15 kts
2026-04-30 07:04 6.58719 3.31517 74 ft 18 kts 359°
2026-04-30 07:04 6.58807 3.31445 74 ft 16 kts 274°
2026-04-30 07:04 6.58770 3.31357 77 ft 13 kts 222°
2026-04-30 07:05 6.58310 3.31321 77 ft 93 kts 180°
2026-04-30 07:05 6.57340 3.31332 78 ft 180 kts 181°
2026-04-30 07:05 6.56007 3.31339 317 ft 189 kts 182°
2026-04-30 07:06 6.54683 3.31318 539 ft 189 kts 183°
2026-04-30 07:06 6.53309 3.31257 594 ft 206 kts 182°
2026-04-30 07:06 6.51853 3.31286 690 ft 209 kts 178°
2026-04-30 07:06 6.50384 3.31272 827 ft 214 kts 193°
2026-04-30 07:07 6.49079 3.30603 1057 ft 211 kts 227°
2026-04-30 07:07 6.48391 3.29326 1292 ft 215 kts 261°
2026-04-30 07:07 6.48531 3.27832 1529 ft 219 kts 294°
2026-04-30 07:07 6.49323 3.26506 1823 ft 221 kts 303°
2026-04-30 07:08 6.50166 3.25201 2133 ft 224 kts 300°
2026-04-30 07:08 6.50965 3.23851 2414 ft 227 kts 300°
2026-04-30 07:08 6.51749 3.22469 2721 ft 227 kts 289°
2026-04-30 07:08 6.51956 3.20904 3024 ft 235 kts 264°
2026-04-30 07:09 6.51753 3.19242 3477 ft 247 kts 262°
2026-04-30 07:09 6.51560 3.17480 3976 ft 258 kts 264°
2026-04-30 07:09 6.51373 3.15680 4460 ft 266 kts 264°
2026-04-30 07:09 6.51183 3.13802 4928 ft 270 kts 264°
2026-04-30 07:10 6.51000 3.11913 5380 ft 280 kts 265°
2026-04-30 07:10 6.50815 3.09947 5849 ft 287 kts 265°
2026-04-30 07:10 6.50650 3.07948 6293 ft 292 kts 268°
2026-04-30 07:10 6.50573 3.05908 6728 ft 296 kts 269°
2026-04-30 07:11 6.50479 3.03828 7178 ft 299 kts 268°
2026-04-30 07:11 6.50381 3.01721 7802 ft 303 kts 268°
2026-04-30 07:11 6.50287 2.99576 8437 ft 312 kts 269°
2026-04-30 07:11 6.50187 2.97375 8702 ft 317 kts 269°
2026-04-30 07:12 6.50089 2.95169 8808 ft 316 kts 269°
2026-04-30 07:12 6.49997 2.92978 8864 ft 316 kts 269°
2026-04-30 07:12 6.49899 2.90787 8920 ft 313 kts 269°
2026-04-30 07:12 6.49804 2.88618 9348 ft 312 kts 269°
2026-04-30 07:13 6.49706 2.86427 10083 ft 320 kts 269°
2026-04-30 07:13 6.49607 2.84190 10853 ft 325 kts 269°
2026-04-30 07:13 6.49509 2.81910 11640 ft 331 kts 268°
2026-04-30 07:13 6.49397 2.79586 12439 ft 335 kts 268°
2026-04-30 07:14 6.49285 2.77242 13239 ft 341 kts 268°
2026-04-30 07:14 6.49057 2.74839 14060 ft 354 kts 256°
2026-04-30 07:14 6.48251 2.72483 14969 ft 366 kts 248°
2026-04-30 07:14 6.47332 2.70049 15874 ft 378 kts 249°
2026-04-30 07:15 6.46417 2.67492 16766 ft 389 kts 249°
2026-04-30 07:15 6.45488 2.64931 17618 ft 395 kts 249°
2026-04-30 07:15 6.44531 2.62295 18458 ft 404 kts 249°
2026-04-30 07:15 6.43554 2.59626 19281 ft 409 kts 249°
2026-04-30 07:16 6.42550 2.56866 20123 ft 415 kts 249°
2026-04-30 07:16 6.41567 2.54174 20933 ft 419 kts 250°
2026-04-30 07:16 6.40543 2.51371 21769 ft 425 kts 250°
2026-04-30 07:16 6.39526 2.48582 22592 ft 430 kts 250°
2026-04-30 07:17 6.38499 2.45731 23454 ft 433 kts 251°
2026-04-30 07:17 6.37858 2.42797 24256 ft 434 kts 268°
2026-04-30 07:17 6.39240 2.37056 25950 ft 424 kts 305°
2026-04-30 07:18 6.41055 2.34812 26812 ft 416 kts 317°
2026-04-30 07:18 6.43074 2.32750 27634 ft 416 kts 317°
2026-04-30 07:18 6.45090 2.30621 28127 ft 425 kts 316°
2026-04-30 07:18 6.47185 2.28448 28457 ft 437 kts 317°
2026-04-30 07:19 6.49339 2.26226 28711 ft 447 kts 316°
2026-04-30 07:19 6.51506 2.24007 28899 ft 451 kts 317°
2026-04-30 07:19 6.53704 2.21765 29029 ft 450 kts 317°
2026-04-30 07:19 6.55928 2.19499 29182 ft 453 kts 317°
2026-04-30 07:20 6.58188 2.17212 29354 ft 468 kts 317°
2026-04-30 07:20 6.60514 2.14858 29559 ft 482 kts 317°
2026-04-30 07:20 6.62916 2.12430 29807 ft 494 kts 316°
2026-04-30 07:20 6.65374 2.09954 30093 ft 506 kts 317°
2026-04-30 07:21 6.67878 2.07422 30400 ft 515 kts 316°
2026-04-30 07:21 6.70385 2.04868 30710 ft 521 kts 316°
2026-04-30 07:21 6.72940 2.02258 31020 ft 526 kts 315°
2026-04-30 07:21 6.75422 1.99503 31319 ft 530 kts 313°
2026-04-30 07:22 6.80316 1.93971 31893 ft 533 kts 313°
2026-04-30 07:22 6.82782 1.91169 32157 ft 533 kts 313°
2026-04-30 07:22 6.85238 1.88399 32398 ft 533 kts 313°
2026-04-30 07:23 6.87718 1.85577 32623 ft 532 kts 313°
2026-04-30 07:23 6.90147 1.82827 32832 ft 532 kts 313°
2026-04-30 07:23 6.92628 1.80015 33038 ft 531 kts 313°
2026-04-30 07:23 6.95064 1.77252 33221 ft 530 kts 313°
2026-04-30 07:24 6.97524 1.74476 33388 ft 530 kts 313°
2026-04-30 07:24 6.99969 1.71710 33539 ft 529 kts 313°
2026-04-30 07:24 7.02395 1.68969 33677 ft 528 kts 313°
2026-04-30 07:24 7.04824 1.66215 33820 ft 527 kts 313°
2026-04-30 07:25 7.07258 1.63455 33929 ft 526 kts 313°
2026-04-30 07:25 7.09683 1.60699 33978 ft 526 kts 313°
2026-04-30 07:25 7.14529 1.55201 33987 ft 525 kts 313°
2026-04-30 07:26 7.19361 1.49715 33984 ft 524 kts 313°
2026-04-30 07:26 7.24194 1.44225 33982 ft 523 kts 313°
2026-04-30 07:27 7.29011 1.38759 33986 ft 523 kts 312°
2026-04-30 07:27 7.33867 1.33243 33986 ft 524 kts 313°
2026-04-30 07:28 7.38701 1.27753 33992 ft 524 kts 312°
2026-04-30 07:28 7.43500 1.22297 33995 ft 524 kts 312°
2026-04-30 07:29 7.48335 1.16799 34001 ft 524 kts 312°
2026-04-30 07:29 7.53154 1.11314 34009 ft 524 kts 312°
2026-04-30 07:30 7.60408 1.03062 34029 ft 524 kts 312°
2026-04-30 07:31 7.65233 0.97571 34047 ft 523 kts 312°
2026-04-30 07:31 7.70073 0.92059 34063 ft 523 kts 312°
2026-04-30 07:32 7.74878 0.86582 34070 ft 523 kts 312°
2026-04-30 07:32 7.79688 0.81095 34071 ft 523 kts 312°
2026-04-30 07:33 7.84521 0.75584 34069 ft 523 kts 312°
2026-04-30 07:33 7.89317 0.70115 34066 ft 523 kts 312°
2026-04-30 07:34 7.94164 0.64594 34061 ft 523 kts 312°
2026-04-30 07:34 7.98956 0.59116 34054 ft 522 kts 312°
2026-04-30 07:34 8.01596 0.56540 33990 ft 520 kts 324°
2026-04-30 07:35 8.04714 0.54703 34021 ft 518 kts 336°
2026-04-30 07:35 8.11245 0.51612 34073 ft 520 kts 335°
2026-04-30 07:36 8.17827 0.48489 34044 ft 520 kts 335°
2026-04-30 07:36 8.24374 0.45389 34027 ft 520 kts 335°
2026-04-30 07:37 8.30919 0.42290 34026 ft 520 kts 336°
2026-04-30 07:37 8.37481 0.39183 34018 ft 520 kts 335°
2026-04-30 07:38 8.44031 0.36086 34017 ft 520 kts 335°
2026-04-30 07:38 8.50590 0.32981 34014 ft 519 kts 335°
2026-04-30 07:39 8.57126 0.29882 34010 ft 519 kts 335°
2026-04-30 07:39 8.63694 0.26771 34009 ft 518 kts 336°
2026-04-30 07:40 8.70223 0.23678 34006 ft 518 kts 335°
2026-04-30 07:40 8.76738 0.20593 34005 ft 519 kts 335°
2026-04-30 07:41 8.83317 0.17471 34006 ft 520 kts 335°
2026-04-30 07:41 8.89863 0.14362 34005 ft 520 kts 335°
2026-04-30 07:42 8.96398 0.11256 34007 ft 519 kts 335°
2026-04-30 07:42 9.02937 0.08149 34010 ft 518 kts 335°
2026-04-30 07:43 9.09507 0.05035 34008 ft 517 kts 336°
2026-04-30 07:43 9.15992 0.01961 34011 ft 517 kts 335°
2026-04-30 07:44 9.22531 -0.01175 34004 ft 518 kts 335°
2026-04-30 07:44 9.29075 -0.04267 34012 ft 519 kts 335°
2026-04-30 07:45 9.35636 -0.07389 34008 ft 520 kts 335°
2026-04-30 07:45 9.42205 -0.10512 34008 ft 520 kts 336°
2026-04-30 07:46 9.48755 -0.13629 34010 ft 520 kts 336°
2026-04-30 07:46 9.55306 -0.16764 34006 ft 520 kts 336°
2026-04-30 07:47 9.61852 -0.19864 34004 ft 521 kts 335°
2026-04-30 07:47 9.68445 -0.22999 34009 ft 521 kts 335°
2026-04-30 07:48 9.75036 -0.26140 34004 ft 522 kts 336°
2026-04-30 07:48 9.81617 -0.29274 34000 ft 523 kts 335°
2026-04-30 07:49 9.88185 -0.32423 33999 ft 523 kts 335°
2026-04-30 07:49 9.94803 -0.35581 33996 ft 523 kts 336°
2026-04-30 07:50 10.01394 -0.38718 33991 ft 523 kts 336°
2026-04-30 07:50 10.07961 -0.41853 33992 ft 523 kts 335°
2026-04-30 07:51 10.14522 -0.45142 33990 ft 523 kts 333°
2026-04-30 07:51 10.20985 -0.48472 33992 ft 522 kts 334°
2026-04-30 07:52 10.27502 -0.51839 33996 ft 522 kts 334°
2026-04-30 07:52 10.33931 -0.55175 33960 ft 511 kts 334°
2026-04-30 07:52 10.37070 -0.56798 33859 ft 499 kts 334°
2026-04-30 07:53 10.40114 -0.58374 33672 ft 488 kts 334°
2026-04-30 07:53 10.43132 -0.59939 33458 ft 478 kts 334°
2026-04-30 07:53 10.46063 -0.61458 33248 ft 472 kts 334°
2026-04-30 07:53 10.48988 -0.62975 33047 ft 473 kts 334°
2026-04-30 07:54 10.51952 -0.64514 32860 ft 474 kts 334°
2026-04-30 07:54 10.54901 -0.66041 32675 ft 474 kts 334°
2026-04-30 07:54 10.57826 -0.67556 32490 ft 472 kts 334°
2026-04-30 07:54 10.60721 -0.69060 32308 ft 470 kts 334°
2026-04-30 07:55 10.63617 -0.70566 32127 ft 467 kts 334°
2026-04-30 07:55 10.66523 -0.72074 31946 ft 466 kts 334°
2026-04-30 07:55 10.69444 -0.73590 31765 ft 465 kts 334°
2026-04-30 07:55 10.72306 -0.75073 31585 ft 464 kts 334°
2026-04-30 07:56 10.75181 -0.76571 31408 ft 462 kts 334°
2026-04-30 07:56 10.78045 -0.78056 31226 ft 461 kts 334°
2026-04-30 07:56 10.80911 -0.79547 30937 ft 460 kts 334°
2026-04-30 07:56 10.83727 -0.81016 30549 ft 456 kts 334°
2026-04-30 07:57 10.86547 -0.82477 30106 ft 452 kts 334°
2026-04-30 07:57 10.89324 -0.83913 29670 ft 448 kts 334°
2026-04-30 07:57 10.92101 -0.85356 29235 ft 445 kts 334°
2026-04-30 07:57 10.94866 -0.86795 28787 ft 442 kts 334°
2026-04-30 07:58 10.97567 -0.88209 28354 ft 438 kts 333°
2026-04-30 07:58 11.00267 -0.89633 27913 ft 435 kts 335°
2026-04-30 07:58 11.03052 -0.90899 27471 ft 432 kts 338°
2026-04-30 07:58 11.05803 -0.92114 27056 ft 431 kts 337°
2026-04-30 07:59 11.08520 -0.93345 26643 ft 429 kts 338°
2026-04-30 07:59 11.11257 -0.94568 26227 ft 427 kts 337°
2026-04-30 07:59 11.13958 -0.95785 25812 ft 425 kts 337°
2026-04-30 08:00 11.19216 -0.98162 24885 ft 398 kts 337°
2026-04-30 08:00 11.21695 -0.99278 24399 ft 386 kts 338°
2026-04-30 08:00 11.24114 -1.00372 23917 ft 375 kts 338°
2026-04-30 08:00 11.26470 -1.01436 23449 ft 363 kts 338°
2026-04-30 08:01 11.28740 -1.02462 22989 ft 353 kts 338°
2026-04-30 08:01 11.31002 -1.03485 22570 ft 356 kts 338°
2026-04-30 08:01 11.33287 -1.04517 22172 ft 357 kts 338°
2026-04-30 08:01 11.35554 -1.05538 21768 ft 356 kts 338°
2026-04-30 08:02 11.40021 -1.07556 20932 ft 350 kts 338°
2026-04-30 08:02 11.42247 -1.08563 20534 ft 346 kts 338°
2026-04-30 08:03 11.46591 -1.10525 19702 ft 341 kts 338°
2026-04-30 08:03 11.50919 -1.12486 18885 ft 333 kts 338°
2026-04-30 08:03 11.53060 -1.13457 18475 ft 336 kts 338°
2026-04-30 08:04 11.55199 -1.14427 18079 ft 332 kts 338°
2026-04-30 08:04 11.57291 -1.15372 17665 ft 330 kts 339°
2026-04-30 08:04 11.59384 -1.16318 17261 ft 326 kts 338°
2026-04-30 08:04 11.61444 -1.17255 16867 ft 327 kts 338°
2026-04-30 08:05 11.63540 -1.18205 16483 ft 326 kts 339°
2026-04-30 08:05 11.65602 -1.19141 16085 ft 321 kts 339°
2026-04-30 08:05 11.67635 -1.20066 15701 ft 322 kts 339°
2026-04-30 08:05 11.69702 -1.21004 15309 ft 319 kts 339°
2026-04-30 08:06 11.71712 -1.21916 14897 ft 317 kts 339°
2026-04-30 08:06 11.73727 -1.22832 14518 ft 316 kts 339°
2026-04-30 08:06 11.75712 -1.23730 14116 ft 311 kts 339°
2026-04-30 08:06 11.77677 -1.24621 13722 ft 309 kts 340°
2026-04-30 08:07 11.79654 -1.25519 13312 ft 308 kts 340°
2026-04-30 08:07 11.81632 -1.26413 12871 ft 308 kts 340°
2026-04-30 08:07 11.83569 -1.27291 12389 ft 303 kts 340°
2026-04-30 08:07 11.85480 -1.28157 11904 ft 301 kts 340°
2026-04-30 08:08 11.87389 -1.29026 11448 ft 299 kts 340°
2026-04-30 08:08 11.89284 -1.29890 10963 ft 294 kts 340°
2026-04-30 08:08 11.91142 -1.30740 10501 ft 296 kts 340°
2026-04-30 08:08 11.93007 -1.31618 10034 ft 293 kts 334°
2026-04-30 08:09 11.94583 -1.32939 9529 ft 295 kts 317°
2026-04-30 08:09 11.95988 -1.34458 9075 ft 289 kts 317°
2026-04-30 08:09 11.97376 -1.35891 8596 ft 285 kts 318°
2026-04-30 08:09 11.98753 -1.37324 8121 ft 281 kts 318°
2026-04-30 08:10 12.00114 -1.38745 7648 ft 277 kts 317°
2026-04-30 08:10 12.01455 -1.40151 7170 ft 274 kts 317°
2026-04-30 08:10 12.02762 -1.41522 6699 ft 271 kts 317°
2026-04-30 08:10 12.04081 -1.42909 6216 ft 267 kts 317°
2026-04-30 08:11 12.05359 -1.44254 5752 ft 264 kts 317°
2026-04-30 08:11 12.06627 -1.45582 5408 ft 256 kts 317°
2026-04-30 08:11 12.07842 -1.46858 5178 ft 249 kts 316°
2026-04-30 08:11 12.09050 -1.48131 4971 ft 251 kts 316°
2026-04-30 08:12 12.10268 -1.49424 4758 ft 251 kts 315°
2026-04-30 08:12 12.11475 -1.50705 4552 ft 251 kts 315°
2026-04-30 08:12 12.12681 -1.51999 4338 ft 250 kts 315°
2026-04-30 08:12 12.13867 -1.53291 4112 ft 247 kts 312°
2026-04-30 08:13 12.14880 -1.54714 3884 ft 247 kts 303°
2026-04-30 08:13 12.15799 -1.56182 3678 ft 245 kts 304°
2026-04-30 08:13 12.16735 -1.57627 3463 ft 244 kts 304°
2026-04-30 08:13 12.17670 -1.59079 3258 ft 243 kts 303°
2026-04-30 08:14 12.18647 -1.60487 3015 ft 243 kts 315°
2026-04-30 08:14 12.20082 -1.61353 2816 ft 242 kts 346°
2026-04-30 08:14 12.21775 -1.61345 2723 ft 246 kts 17°
2026-04-30 08:14 12.23250 -1.60517 2778 ft 239 kts 36°
2026-04-30 08:15 12.24591 -1.59561 2690 ft 237 kts 33°
2026-04-30 08:15 12.25946 -1.58561 2540 ft 231 kts 39°
2026-04-30 08:15 12.27074 -1.57643 2896 ft 188 kts 35°
2026-04-30 08:15 12.28079 -1.56880 2715 ft 178 kts 35°
2026-04-30 08:16 12.29007 -1.56061 2462 ft 174 kts 45°
2026-04-30 08:16 12.29818 -1.55143 2268 ft 173 kts 45°
2026-04-30 08:16 12.30732 -1.54337 2034 ft 172 kts 30°
2026-04-30 08:16 12.31715 -1.53652 1804 ft 172 kts 33°
2026-04-30 08:17 12.32680 -1.52991 1524 ft 161 kts 32°
2026-04-30 08:17 12.33605 -1.52380 1184 ft 153 kts 33°
2026-04-30 08:17 12.34468 -1.51795 1051 ft 144 kts 31°
2026-04-30 08:17 12.35190 -1.51309 1027 ft 77 kts 32°
2026-04-30 08:18 12.35323 -1.51225 1023 ft 0 kts 30°
2026-04-30 08:18 12.35327 -1.51223 1023 ft 1 kts 30°
2026-04-30 08:18 12.35334 -1.51218 1023 ft 1 kts 25°
2026-04-30 08:18 12.35379 -1.51230 1022 ft 9 kts 323°
2026-04-30 08:19 12.35398 -1.51250 1022 ft 0 kts 308°
2026-04-30 08:19 12.35416 -1.51276 1022 ft 8 kts 302°
2026-04-30 08:20 12.35409 -1.51327 1024 ft 6 kts 205°
2026-04-30 08:20 12.35382 -1.51344 1024 ft 5 kts 230°
2026-04-30 08:20 12.35357 -1.51368 1025 ft 2 kts 212°
2026-04-30 08:20 12.35337 -1.51381 1026 ft 2 kts 212°
2026-04-30 08:21 12.35313 -1.51399 1027 ft 0 kts 231°
2026-04-30 08:21 12.35305 -1.51415 1027 ft 7 kts 262°
2026-04-30 08:21 12.35332 -1.51449 1027 ft 5 kts 15°
2026-04-30 08:21 12.35343 -1.51419 1026 ft 3 kts 85°
2026-04-30 08:22 12.35343 -1.51417 1026 ft 0 kts 85°
2026-04-30 08:22 12.35345 -1.51400 1026 ft 7 kts 83°
2026-04-30 08:22 12.35346 -1.51397 1026 ft 0 kts 83°
2026-04-30 08:22 12.35348 -1.51377 1025 ft 7 kts 83°
2026-04-30 08:23 12.35351 -1.51357 1025 ft 5 kts 79°
2026-04-30 08:23 12.35351 -1.51362 1025 ft 1 kts 79°
2026-04-30 08:24 12.35350 -1.51366 1025 ft 0 kts 79°
2026-04-30 08:24 12.35349 -1.51369 1025 ft 0 kts 79°
2026-04-30 08:24 12.35350 -1.51366 1025 ft 0 kts 79°
2026-04-30 08:27 12.35349 -1.51370 1025 ft 2 kts 80°
2026-04-30 08:27 12.35347 -1.51385 1025 ft 2 kts 82°
2026-04-30 08:27 12.35345 -1.51400 1025 ft 2 kts 83°
2026-04-30 08:27 12.35343 -1.51414 1026 ft 2 kts 83°
2026-04-30 08:28 12.35341 -1.51429 1026 ft 2 kts 83°
2026-04-30 08:28 12.35340 -1.51439 1027 ft 0 kts 83°